| time (UTC) | temp F | wind direction | speed MPH | gust MPH | rain 1hr in | rain 24hr in | rain mn in | humidity % | barometer mb |
| 20260506070802 | 49 | 150 | 0.0 | 0.0 | 0.00 | 0.00 | 0.00 | 99 | 1005.2 |
| 20260506070259 | 49 | 150 | 0.0 | 0.0 | 0.00 | 0.00 | 0.00 | 99 | 1005.7 |
| 20260506062236 | 49 | 167 | 0.0 | 0.0 | 0.00 | 0.00 | 0.00 | 99 | 1005.9 |
| 20260506061732 | 49 | 167 | 1.0 | 1.0 | 0.00 | 0.00 | 0.00 | 99 | 1006.2 |
| 20260506061230 | 49 | 174 | 0.0 | 0.0 | 0.00 | 0.00 | 0.00 | 99 | 1006.4 |
| 20260506060728 | 49 | 134 | 0.0 | 0.0 | 0.00 | 0.00 | 0.00 | 99 | 1006.2 |
| 20260506060225 | 49 | 135 | 0.0 | 0.0 | 0.00 | 0.00 | 0.00 | 99 | 1006.5 |
| 20260506051151 | 49 | 104 | 1.0 | 1.0 | 0.00 | 0.00 | 0.00 | 99 | 1007.3 |
| 20260506050649 | 49 | 131 | 0.0 | 0.0 | 0.00 | 0.00 | 0.00 | 99 | 1007.4 |
| 20260506050146 | 49 | 131 | 0.0 | 0.0 | 0.00 | 0.00 | 0.00 | 99 | 1007.2 |
| 20260506044637 | 50 | 131 | 0.0 | 0.0 | 0.00 | 0.00 | 0.00 | 99 | 1007.1 |
| 20260506044134 | 50 | 131 | 0.0 | 0.0 | 0.00 | 0.00 | 0.00 | 99 | 1007.1 |
| 20260506043631 | 50 | 131 | 0.0 | 0.0 | 0.00 | 0.00 | 0.00 | 99 | 1007.1 |
| 20260506043129 | 50 | 131 | 0.0 | 0.0 | 0.00 | 0.00 | 0.00 | 99 | 1007.2 |
| 20260506042628 | 50 | 131 | 0.0 | 0.0 | 0.00 | 0.00 | 0.00 | 99 | 1007.3 |
| 20260506042125 | 50 | 131 | 0.0 | 0.0 | 0.00 | 0.00 | 0.00 | 99 | 1007.5 |
| 20260506041624 | 50 | 131 | 0.0 | 0.0 | 0.00 | 0.00 | 0.00 | 99 | 1007.4 |
| 20260506041120 | 50 | 131 | 0.0 | 0.0 | 0.00 | 0.00 | 0.00 | 99 | 1007.4 |
| 20260506040618 | 50 | 131 | 0.0 | 0.0 | 0.00 | 0.00 | 0.00 | 99 | 1007.5 |
| 20260506040115 | 50 | 131 | 0.0 | 0.0 | 0.00 | 0.22 | 0.22 | 99 | 1007.6 |
| 20260506035611 | 50 | 131 | 0.0 | 0.0 | 0.00 | 0.22 | 0.22 | 99 | 1007.7 |
| 20260506035108 | 50 | 131 | 0.0 | 0.0 | 0.00 | 0.22 | 0.22 | 99 | 1007.6 |
| 20260506034605 | 50 | 131 | 0.0 | 0.0 | 0.00 | 0.22 | 0.22 | 99 | 1007.5 |
| 20260506034102 | 51 | 131 | 0.0 | 0.0 | 0.00 | 0.22 | 0.22 | 98 | 1007.3 |
| 20260506033559 | 51 | 131 | 0.0 | 0.0 | 0.00 | 0.22 | 0.22 | 98 | 1007.5 |
| 20260506033056 | 52 | 131 | 0.0 | 0.0 | 0.00 | 0.22 | 0.22 | 97 | 1007.7 |
| 20260506032554 | 52 | 131 | 0.0 | 0.0 | 0.00 | 0.22 | 0.22 | 97 | 1007.4 |
| 20260506032050 | 52 | 131 | 0.0 | 0.0 | 0.00 | 0.22 | 0.22 | 95 | 1007.5 |
| 20260506031548 | 53 | 130 | 0.0 | 1.0 | 0.00 | 0.22 | 0.22 | 96 | 1007.6 |
| 20260506031044 | 53 | 151 | 0.0 | 0.0 | 0.00 | 0.22 | 0.22 | 97 | 1007.5 |
| 20260506030543 | 53 | 152 | 0.0 | 0.0 | 0.00 | 0.22 | 0.22 | 97 | 1007.7 |
| 20260506030040 | 53 | 151 | 0.0 | 0.0 | 0.00 | 0.22 | 0.22 | 95 | 1007.5 |
| 20260506025537 | 54 | 129 | 0.0 | 0.0 | 0.00 | 0.22 | 0.22 | 95 | 1007.6 |
| 20260506025033 | 54 | 73 | 1.0 | 1.0 | 0.00 | 0.22 | 0.22 | 96 | 1007.7 |
| 20260506024530 | 54 | 72 | 1.0 | 1.0 | 0.00 | 0.22 | 0.22 | 96 | 1007.8 |
| 20260506024026 | 55 | 71 | 1.0 | 1.0 | 0.00 | 0.22 | 0.22 | 97 | 1007.8 |
| 20260506023522 | 55 | 139 | 1.0 | 2.0 | 0.00 | 0.22 | 0.22 | 97 | 1007.9 |
| 20260506023020 | 55 | 97 | 2.0 | 2.0 | 0.00 | 0.22 | 0.22 | 98 | 1007.5 |
| 20260506022517 | 55 | 125 | 2.0 | 3.0 | 0.00 | 0.22 | 0.22 | 99 | 1007.6 |
| 20260506022015 | 55 | 100 | 0.0 | 1.0 | 0.00 | 0.22 | 0.22 | 99 | 1007.3 |
| 20260506021512 | 55 | 100 | 0.0 | 1.0 | 0.00 | 0.22 | 0.22 | 99 | 1007.3 |
| 20260506021009 | 55 | 116 | 2.0 | 3.0 | 0.00 | 0.22 | 0.22 | 99 | 1007.2 |
| 20260506020507 | 56 | 134 | 0.0 | 1.0 | 0.00 | 0.22 | 0.22 | 99 | 1007.2 |
| 20260506020004 | 56 | 119 | 1.0 | 2.0 | 0.00 | 0.22 | 0.22 | 99 | 1007.2 |
| 20260506015501 | 56 | 119 | 0.0 | 0.0 | 0.00 | 0.22 | 0.22 | 99 | 1007.0 |
| 20260506014958 | 56 | 119 | 0.0 | 0.0 | 0.00 | 0.22 | 0.22 | 99 | 1006.9 |
| 20260506014455 | 56 | 119 | 0.0 | 0.0 | 0.00 | 0.22 | 0.22 | 99 | 1006.7 |
| 20260506013951 | 56 | 119 | 0.0 | 0.0 | 0.00 | 0.22 | 0.22 | 99 | 1006.8 |
| 20260506013449 | 56 | 119 | 0.0 | 0.0 | 0.00 | 0.22 | 0.22 | 99 | 1007.1 |
| 20260506012945 | 57 | 119 | 0.0 | 0.0 | 0.00 | 0.22 | 0.22 | 99 | 1007.0 |
| 20260506012442 | 56 | 119 | 0.0 | 0.0 | 0.00 | 0.22 | 0.22 | 99 | 1007.0 |
| 20260506011939 | 57 | 119 | 0.0 | 0.0 | 0.00 | 0.22 | 0.22 | 99 | 1006.6 |
| 20260506011436 | 57 | 117 | 1.0 | 1.0 | 0.00 | 0.22 | 0.22 | 99 | 1006.6 |
| 20260506010933 | 57 | 117 | 0.0 | 0.0 | 0.00 | 0.22 | 0.22 | 99 | 1006.5 |
| 20260506010432 | 57 | 114 | 0.0 | 1.0 | 0.00 | 0.22 | 0.22 | 99 | 1006.8 |
| 20260506005928 | 57 | 216 | 0.0 | 0.0 | 0.00 | 0.22 | 0.22 | 99 | 1006.5 |
| 20260506005426 | 57 | 111 | 0.0 | 0.0 | 0.00 | 0.22 | 0.22 | 99 | 1006.2 |
| 20260506004921 | 57 | 111 | 0.0 | 0.0 | 0.00 | 0.22 | 0.22 | 99 | 1006.4 |
| 20260506004419 | 57 | 160 | 0.0 | 0.0 | 0.00 | 0.22 | 0.22 | 99 | 1006.0 |
| 20260506003915 | 57 | 160 | 0.0 | 0.0 | 0.00 | 0.22 | 0.22 | 99 | 1006.0 |
| 20260506003411 | 57 | 160 | 0.0 | 0.0 | 0.00 | 0.22 | 0.22 | 99 | 1005.7 |
| 20260506002908 | 57 | 160 | 0.0 | 0.0 | 0.00 | 0.22 | 0.22 | 99 | 1005.8 |
| 20260506002404 | 57 | 160 | 0.0 | 0.0 | 0.00 | 0.22 | 0.22 | 99 | 1005.8 |
| 20260506001859 | 57 | 160 | 0.0 | 0.0 | 0.00 | 0.22 | 0.22 | 99 | 1005.8 |
| 20260506001356 | 57 | 160 | 0.0 | 0.0 | 0.00 | 0.22 | 0.22 | 99 | 1005.7 |
| 20260506000854 | 57 | 160 | 0.0 | 0.0 | 0.00 | 0.22 | 0.22 | 99 | 1005.6 |
| 20260506000354 | 58 | 160 | 0.0 | 0.0 | 0.00 | 0.22 | 0.22 | 99 | 1005.6 |
| 20260505235848 | 58 | 160 | 0.0 | 0.0 | 0.00 | 0.22 | 0.22 | 99 | 1005.4 |
| 20260505235346 | 58 | 160 | 0.0 | 0.0 | 0.00 | 0.22 | 0.22 | 99 | 1005.6 |
| 20260505234842 | 59 | 160 | 0.0 | 0.0 | 0.00 | 0.22 | 0.22 | 99 | 1005.4 |
| 20260505234340 | 59 | 160 | 0.0 | 0.0 | 0.00 | 0.22 | 0.22 | 99 | 1005.6 |
| 20260505233837 | 59 | 160 | 0.0 | 0.0 | 0.00 | 0.22 | 0.22 | 99 | 1005.7 |
| 20260505233335 | 59 | 160 | 0.0 | 0.0 | 0.00 | 0.22 | 0.22 | 99 | 1005.2 |
| 20260505232832 | 59 | 160 | 0.0 | 0.0 | 0.00 | 0.22 | 0.22 | 99 | 1005.4 |
| 20260505232330 | 59 | 161 | 0.0 | 0.0 | 0.00 | 0.22 | 0.22 | 99 | 1005.6 |
| 20260505231826 | 59 | 161 | 0.0 | 0.0 | 0.00 | 0.22 | 0.22 | 99 | 1005.7 |
| 20260505231324 | 59 | 161 | 0.0 | 0.0 | 0.00 | 0.22 | 0.22 | 99 | 1005.2 |
| 20260505230822 | 60 | 160 | 1.0 | 1.0 | 0.00 | 0.22 | 0.22 | 99 | 1005.4 |
| 20260505230319 | 60 | 159 | 0.0 | 0.0 | 0.05 | 0.22 | 0.22 | 99 | 1005.2 |
| 20260505225815 | 60 | 159 | 0.0 | 0.0 | 0.05 | 0.22 | 0.22 | 99 | 1005.2 |
| 20260505225313 | 60 | 161 | 0.0 | 0.0 | 0.00 | 0.21 | 0.21 | 99 | 1005.8 |
| 20260505224808 | 60 | 161 | 0.0 | 0.0 | 0.00 | 0.21 | 0.21 | 99 | 1005.9 |
| 20260505224306 | 60 | 161 | 0.0 | 0.0 | 0.00 | 0.21 | 0.21 | 98 | 1005.7 |
| 20260505223803 | 61 | 161 | 0.0 | 0.0 | 0.00 | 0.21 | 0.21 | 97 | 1005.4 |
| 20260505223300 | 61 | 161 | 0.0 | 0.0 | 0.00 | 0.21 | 0.21 | 96 | 1004.9 |
| 20260505222755 | 61 | 161 | 0.0 | 0.0 | 0.00 | 0.21 | 0.21 | 97 | 1005.1 |
| 20260505222252 | 62 | 161 | 0.0 | 1.0 | 0.00 | 0.21 | 0.21 | 96 | 1005.3 |
| 20260505221749 | 61 | 161 | 0.0 | 0.0 | 0.00 | 0.21 | 0.21 | 95 | 1005.1 |
| 20260505221245 | 61 | 161 | 0.0 | 0.0 | 0.00 | 0.21 | 0.21 | 96 | 1005.0 |
| 20260505220742 | 62 | 138 | 0.0 | 0.0 | 0.00 | 0.21 | 0.21 | 94 | 1004.8 |
| 20260505220239 | 62 | 138 | 1.0 | 1.0 | 0.00 | 0.21 | 0.21 | 94 | 1004.7 |
| 20260505215738 | 62 | 113 | 1.0 | 1.0 | 0.00 | 0.21 | 0.21 | 93 | 1004.7 |
| 20260505215235 | 63 | 136 | 3.0 | 3.0 | 0.00 | 0.21 | 0.21 | 93 | 1004.5 |
| 20260505214733 | 63 | 132 | 2.0 | 2.0 | 0.00 | 0.21 | 0.21 | 93 | 1004.7 |
| 20260505214230 | 63 | 132 | 2.0 | 2.0 | 0.00 | 0.21 | 0.21 | 96 | 1004.7 |
| 20260505213727 | 63 | 141 | 3.0 | 3.0 | 0.00 | 0.21 | 0.21 | 93 | 1004.5 |
| 20260505213224 | 63 | 133 | 2.0 | 3.0 | 0.00 | 0.21 | 0.21 | 94 | 1005.0 |
| 20260505212720 | 62 | 153 | 0.0 | 0.0 | 0.00 | 0.21 | 0.21 | 95 | 1004.8 |
| 20260505212218 | 62 | 157 | 2.0 | 2.0 | 0.00 | 0.21 | 0.21 | 97 | 1004.9 |
| 20260505211715 | 62 | 73 | 1.0 | 2.0 | 0.00 | 0.21 | 0.21 | 96 | 1005.1 |
| 20260505211212 | 61 | 66 | 0.0 | 0.0 | 0.00 | 0.21 | 0.21 | 98 | 1005.0 |
| 20260505210708 | 61 | 66 | 0.0 | 0.0 | 0.00 | 0.21 | 0.21 | 98 | 1005.0 |
| 20260505210205 | 61 | 66 | 0.0 | 0.0 | 0.00 | 0.21 | 0.21 | 99 | 1004.8 |
| 20260505205703 | 60 | 66 | 0.0 | 0.0 | 0.07 | 0.21 | 0.21 | 98 | 1004.9 |
| 20260505205201 | 60 | 66 | 0.0 | 0.0 | 0.07 | 0.21 | 0.21 | 97 | 1005.1 |
| 20260505204656 | 60 | 66 | 1.0 | 1.0 | 0.00 | 0.20 | 0.20 | 97 | 1005.1 |
| 20260505204154 | 60 | 66 | 1.0 | 1.0 | 0.00 | 0.20 | 0.20 | 96 | 1005.1 |
| 20260505203651 | 60 | 66 | 0.0 | 0.0 | 0.00 | 0.20 | 0.20 | 97 | 1005.4 |
| 20260505203143 | 60 | 65 | 0.0 | 0.0 | 0.05 | 0.20 | 0.20 | 96 | 1005.4 |
| 20260505202638 | 59 | 202 | 0.0 | 0.0 | 0.05 | 0.20 | 0.20 | 95 | 1005.7 |
| 20260505202134 | 59 | 154 | 2.0 | 3.0 | 0.07 | 0.19 | 0.19 | 94 | 1005.7 |
| 20260505201631 | 59 | 320 | 3.0 | 3.0 | 0.38 | 0.19 | 0.19 | 93 | 1005.9 |
| 20260505201129 | 59 | 182 | 2.0 | 3.0 | 0.61 | 0.19 | 0.19 | 93 | 1005.8 |
| 20260505200627 | 62 | 118 | 3.0 | 3.0 | 0.31 | 0.14 | 0.14 | 87 | 1005.8 |
| 20260505200124 | 71 | 297 | 4.0 | 4.0 | 0.05 | 0.09 | 0.09 | 57 | 1004.2 |
| 20260505195620 | 72 | 248 | 3.0 | 4.0 | 0.05 | 0.09 | 0.09 | 52 | 1003.7 |
| 20260505195117 | 73 | 326 | 3.0 | 3.0 | 0.00 | 0.08 | 0.08 | 52 | 1003.5 |
| 20260505194614 | 73 | 279 | 1.0 | 2.0 | 0.00 | 0.08 | 0.08 | 49 | 1003.2 |
| 20260505194110 | 73 | 219 | 2.0 | 3.0 | 0.00 | 0.08 | 0.08 | 48 | 1003.3 |
| 20260505193607 | 73 | 271 | 3.0 | 3.0 | 0.00 | 0.08 | 0.08 | 49 | 1003.1 |
| 20260505193104 | 74 | 269 | 8.0 | 10.0 | 0.00 | 0.08 | 0.08 | 48 | 1003.1 |
| 20260505192603 | 74 | 81 | 2.0 | 3.0 | 0.00 | 0.08 | 0.08 | 50 | 1003.3 |
| 20260505192100 | 75 | 277 | 4.0 | 4.0 | 0.00 | 0.08 | 0.08 | 52 | 1003.2 |
| 20260505191558 | 74 | 234 | 5.0 | 7.0 | 0.00 | 0.08 | 0.08 | 49 | 1003.4 |
| 20260505191055 | 74 | 293 | 5.0 | 6.0 | 0.00 | 0.08 | 0.08 | 53 | 1003.1 |
| 20260505190550 | 73 | 165 | 1.0 | 2.0 | 0.00 | 0.08 | 0.08 | 56 | 1003.2 |
| 20260505190046 | 73 | 266 | 3.0 | 4.0 | 0.00 | 0.08 | 0.08 | 58 | 1003.3 |
| 20260505185543 | 73 | 221 | 2.0 | 2.0 | 0.00 | 0.08 | 0.08 | 63 | 1003.4 |
| 20260505185040 | 71 | 155 | 0.0 | 1.0 | 0.00 | 0.08 | 0.08 | 75 | 1003.5 |
| 20260505184537 | 70 | 161 | 0.0 | 1.0 | 0.00 | 0.08 | 0.08 | 67 | 1003.9 |
| 20260505184033 | 69 | 164 | 3.0 | 3.0 | 0.00 | 0.08 | 0.08 | 68 | 1004.2 |
| 20260505183530 | 69 | 160 | 3.0 | 3.0 | 0.00 | 0.08 | 0.08 | 73 | 1004.3 |
| 20260505183028 | 68 | 131 | 3.0 | 3.0 | 0.00 | 0.08 | 0.08 | 79 | 1004.4 |
| 20260505182524 | 68 | 144 | 0.0 | 1.0 | 0.07 | 0.08 | 0.08 | 73 | 1004.3 |
| 20260505182020 | 69 | 221 | 2.0 | 3.0 | 0.07 | 0.08 | 0.08 | 66 | 1004.6 |
| 20260505181517 | 69 | 189 | 0.0 | 1.0 | 0.00 | 0.07 | 0.07 | 65 | 1004.3 |
| 20260505181015 | 68 | 252 | 9.0 | 13.0 | 0.00 | 0.07 | 0.07 | 67 | 1004.8 |
| 20260505180510 | 72 | 278 | 2.0 | 4.0 | 0.00 | 0.07 | 0.07 | 62 | 1004.9 |
| 20260505180008 | 73 | 315 | 4.0 | 6.0 | 0.00 | 0.07 | 0.07 | 52 | 1004.6 |
| 20260505175502 | 73 | 181 | 4.0 | 7.0 | 0.00 | 0.07 | 0.07 | 50 | 1004.5 |
| 20260505174959 | 73 | 101 | 3.0 | 4.0 | 0.00 | 0.07 | 0.07 | 52 | 1004.2 |
| 20260505174456 | 73 | 149 | 2.0 | 2.0 | 0.00 | 0.07 | 0.07 | 52 | 1004.5 |
| 20260505173947 | 73 | 268 | 5.0 | 7.0 | 0.00 | 0.07 | 0.07 | 51 | 1004.5 |
| 20260505173444 | 73 | 202 | 3.0 | 4.0 | 0.00 | 0.07 | 0.07 | 51 | 1004.6 |
| 20260505172941 | 73 | 197 | 4.0 | 4.0 | 0.00 | 0.07 | 0.07 | 51 | 1004.5 |
| 20260505172439 | 73 | 293 | 2.0 | 3.0 | 0.00 | 0.07 | 0.07 | 51 | 1004.4 |
| 20260505171938 | 73 | 257 | 10.0 | 13.0 | 0.00 | 0.07 | 0.07 | 50 | 1004.5 |
| 20260505171436 | 74 | 317 | 5.0 | 8.0 | 0.00 | 0.07 | 0.07 | 50 | 1004.2 |
| 20260505170932 | 75 | 210 | 4.0 | 6.0 | 0.00 | 0.07 | 0.07 | 50 | 1003.8 |
| 20260505170429 | 75 | 193 | 3.0 | 7.0 | 0.00 | 0.07 | 0.07 | 52 | 1003.8 |
| 20260505165924 | 75 | 196 | 6.0 | 7.0 | 0.00 | 0.07 | 0.07 | 50 | 1003.8 |
| 20260505165420 | 75 | 233 | 4.0 | 6.0 | 0.00 | 0.07 | 0.07 | 48 | 1004.1 |
| 20260505164916 | 76 | 264 | 4.0 | 7.0 | 0.00 | 0.07 | 0.07 | 49 | 1004.2 |
| 20260505164413 | 75 | 292 | 2.0 | 3.0 | 0.00 | 0.07 | 0.07 | 49 | 1004.1 |
| 20260505163911 | 75 | 200 | 6.0 | 8.0 | 0.00 | 0.07 | 0.07 | 50 | 1004.2 |
| 20260505163410 | 75 | 156 | 4.0 | 8.0 | 0.00 | 0.07 | 0.07 | 51 | 1004.3 |
| 20260505162908 | 75 | 261 | 7.0 | 8.0 | 0.00 | 0.07 | 0.07 | 49 | 1004.4 |
| 20260505162404 | 75 | 304 | 12.0 | 16.0 | 0.00 | 0.07 | 0.07 | 50 | 1004.7 |
| 20260505161901 | 76 | 210 | 1.0 | 1.0 | 0.00 | 0.07 | 0.07 | 49 | 1004.4 |
| 20260505161358 | 75 | 106 | 2.0 | 3.0 | 0.00 | 0.07 | 0.07 | 47 | 1004.4 |
| 20260505160855 | 75 | 208 | 3.0 | 4.0 | 0.00 | 0.07 | 0.07 | 51 | 1004.6 |
| 20260505160353 | 75 | 264 | 4.0 | 6.0 | 0.00 | 0.07 | 0.07 | 52 | 1004.6 |
| 20260505153332 | 73 | 317 | 9.0 | 10.0 | 0.00 | 0.07 | 0.07 | 50 | 1004.8 |
| 20260505152828 | 74 | 270 | 10.0 | 14.0 | 0.00 | 0.07 | 0.07 | 48 | 1004.8 |
| 20260505152325 | 74 | 195 | 7.0 | 10.0 | 0.00 | 0.07 | 0.07 | 50 | 1004.7 |
| 20260505151820 | 74 | 231 | 5.0 | 7.0 | 0.00 | 0.07 | 0.07 | 48 | 1004.7 |
| 20260505151317 | 73 | 197 | 4.0 | 7.0 | 0.00 | 0.07 | 0.07 | 49 | 1004.7 |
| 20260505150813 | 74 | 213 | 3.0 | 3.0 | 0.00 | 0.07 | 0.07 | 50 | 1004.6 |
| 20260505150310 | 73 | 172 | 2.0 | 2.0 | 0.00 | 0.07 | 0.07 | 51 | 1004.5 |
| 20260505140235 | 69 | 286 | 4.0 | 6.0 | 0.00 | 0.07 | 0.07 | 62 | 1005.4 |
| 20260505130159 | 58 | 169 | 0.0 | 0.0 | 0.00 | 0.07 | 0.07 | 95 | 1006.0 |
| 20260505124649 | 56 | 169 | 0.0 | 0.0 | 0.00 | 0.07 | 0.07 | 99 | 1006.1 |
| 20260505124145 | 56 | 169 | 0.0 | 0.0 | 0.00 | 0.07 | 0.07 | 98 | 1006.0 |
| 20260505123641 | 55 | 169 | 0.0 | 0.0 | 0.00 | 0.07 | 0.07 | 98 | 1005.9 |
| 20260505123138 | 55 | 169 | 0.0 | 0.0 | 0.00 | 0.07 | 0.07 | 98 | 1005.9 |
| 20260505122634 | 55 | 186 | 0.0 | 0.0 | 0.00 | 0.07 | 0.07 | 97 | 1005.9 |
| 20260505122132 | 55 | 186 | 0.0 | 0.0 | 0.00 | 0.07 | 0.07 | 95 | 1006.0 |
| 20260505121623 | 55 | 168 | 0.0 | 0.0 | 0.24 | 0.07 | 0.07 | 96 | 1005.7 |
| 20260505121120 | 56 | 143 | 1.0 | 1.0 | 0.42 | 0.07 | 0.07 | 90 | 1005.6 |
| 20260505120615 | 59 | 122 | 1.0 | 1.0 | 0.19 | 0.03 | 0.03 | 83 | 1006.1 |
| 20260505120111 | 59 | 208 | 2.0 | 2.0 | 0.00 | 0.00 | 0.00 | 77 | 1006.7 |
| 20260505115606 | 60 | 117 | 2.0 | 2.0 | 0.00 | 0.00 | 0.00 | 73 | 1006.0 |
| 20260505115104 | 60 | 142 | 0.0 | 1.0 | 0.00 | 0.00 | 0.00 | 71 | 1006.1 |
| 20260505114601 | 60 | 262 | 2.0 | 3.0 | 0.00 | 0.00 | 0.00 | 72 | 1006.0 |
| 20260505114057 | 60 | 136 | 3.0 | 4.0 | 0.00 | 0.00 | 0.00 | 73 | 1005.9 |
| 20260505113553 | 59 | 240 | 0.0 | 1.0 | 0.00 | 0.00 | 0.00 | 72 | 1005.9 |
| 20260505113050 | 59 | 243 | 1.0 | 1.0 | 0.00 | 0.00 | 0.00 | 73 | 1005.8 |
| 20260505112546 | 58 | 102 | 1.0 | 2.0 | 0.00 | 0.00 | 0.00 | 76 | 1005.9 |
| 20260505112044 | 58 | 139 | 0.0 | 1.0 | 0.00 | 0.00 | 0.00 | 77 | 1006.1 |
| 20260505111538 | 56 | 151 | 1.0 | 1.0 | 0.00 | 0.00 | 0.00 | 78 | 1006.1 |
| 20260505111035 | 55 | 151 | 0.0 | 0.0 | 0.00 | 0.00 | 0.00 | 80 | 1006.0 |
| 20260505110531 | 55 | 132 | 0.0 | 0.0 | 0.00 | 0.00 | 0.00 | 85 | 1005.7 |
| 20260505102004 | 46 | 168 | 0.0 | 0.0 | 0.00 | 0.00 | 0.00 | 98 | 1005.6 |
| 20260505101503 | 46 | 141 | 0.0 | 0.0 | 0.00 | 0.00 | 0.00 | 98 | 1005.2 |
| 20260505100958 | 45 | 141 | 0.0 | 0.0 | 0.00 | 0.00 | 0.00 | 98 | 1005.2 |
| 20260505100455 | 46 | 141 | 0.0 | 1.0 | 0.00 | 0.00 | 0.00 | 98 | 1005.1 |
| 20260505095951 | 46 | 142 | 0.0 | 0.0 | 0.00 | 0.00 | 0.00 | 98 | 1005.0 |
| 20260505095448 | 46 | 142 | 0.0 | 0.0 | 0.00 | 0.00 | 0.00 | 98 | 1004.8 |
| 20260505094944 | 46 | 142 | 0.0 | 0.0 | 0.00 | 0.00 | 0.00 | 98 | 1004.9 |
| 20260505094441 | 46 | 141 | 0.0 | 0.0 | 0.00 | 0.00 | 0.00 | 98 | 1004.8 |
| 20260505093937 | 46 | 141 | 0.0 | 0.0 | 0.00 | 0.00 | 0.00 | 97 | 1004.7 |
| 20260505093434 | 46 | 141 | 0.0 | 0.0 | 0.00 | 0.00 | 0.00 | 98 | 1004.8 |
| 20260505092931 | 46 | 140 | 1.0 | 1.0 | 0.00 | 0.00 | 0.00 | 98 | 1004.9 |
| 20260505092429 | 47 | 140 | 0.0 | 0.0 | 0.00 | 0.00 | 0.00 | 98 | 1004.6 |
| 20260505091926 | 47 | 140 | 0.0 | 0.0 | 0.00 | 0.00 | 0.00 | 98 | 1004.8 |
| 20260505091424 | 47 | 140 | 0.0 | 0.0 | 0.00 | 0.00 | 0.00 | 97 | 1004.7 |
| 20260505090921 | 48 | 140 | 0.0 | 0.0 | 0.00 | 0.00 | 0.00 | 97 | 1004.8 |
| 20260505090420 | 48 | 140 | 0.0 | 0.0 | 0.00 | 0.00 | 0.00 | 97 | 1004.5 |
| 20260505085917 | 48 | 140 | 0.0 | 0.0 | 0.00 | 0.00 | 0.00 | 97 | 1004.7 |
| 20260505085415 | 48 | 140 | 0.0 | 0.0 | 0.00 | 0.00 | 0.00 | 97 | 1004.7 |
| 20260505084912 | 49 | 140 | 0.0 | 0.0 | 0.00 | 0.00 | 0.00 | 96 | 1004.7 |
| 20260505084410 | 49 | 140 | 0.0 | 0.0 | 0.00 | 0.00 | 0.00 | 95 | 1004.7 |
| 20260505083908 | 49 | 140 | 0.0 | 0.0 | 0.00 | 0.00 | 0.00 | 93 | 1004.7 |
| 20260505083406 | 50 | 140 | 0.0 | 0.0 | 0.00 | 0.00 | 0.00 | 92 | 1004.8 |
| 20260505082901 | 50 | 151 | 0.0 | 0.0 | 0.00 | 0.00 | 0.00 | 93 | 1004.7 |
| 20260505082357 | 50 | 132 | 0.0 | 1.0 | 0.00 | 0.00 | 0.00 | 93 | 1004.6 |
| 20260505081854 | 51 | 141 | 0.0 | 0.0 | 0.00 | 0.00 | 0.00 | 94 | 1004.7 |
| 20260505081351 | 51 | 141 | 0.0 | 0.0 | 0.00 | 0.00 | 0.00 | 93 | 1004.6 |
| 20260505080848 | 50 | 141 | 0.0 | 0.0 | 0.00 | 0.00 | 0.00 | 93 | 1004.7 |
| 20260505080343 | 50 | 140 | 1.0 | 1.0 | 0.00 | 0.00 | 0.00 | 92 | 1004.4 |
| 20260505075839 | 51 | 141 | 0.0 | 0.0 | 0.00 | 0.00 | 0.00 | 92 | 1004.7 |
| 20260505075336 | 51 | 139 | 0.0 | 0.0 | 0.00 | 0.00 | 0.00 | 92 | 1004.7 |
| 20260505074833 | 52 | 139 | 0.0 | 0.0 | 0.00 | 0.00 | 0.00 | 91 | 1004.5 |
| 20260505074330 | 53 | 131 | 0.0 | 0.0 | 0.00 | 0.00 | 0.00 | 86 | 1004.6 |
| 20260505073828 | 54 | 174 | 0.0 | 0.0 | 0.00 | 0.00 | 0.00 | 82 | 1004.9 |
| 20260505073326 | 56 | 159 | 0.0 | 1.0 | 0.00 | 0.00 | 0.00 | 75 | 1004.8 |
| 20260505072822 | 56 | 133 | 0.0 | 0.0 | 0.00 | 0.00 | 0.00 | 69 | 1004.8 |
| 20260505072319 | 55 | 210 | 1.0 | 1.0 | 0.00 | 0.00 | 0.00 | 71 | 1004.8 |
| 20260505071815 | 55 | 135 | 1.0 | 2.0 | 0.00 | 0.00 | 0.00 | 70 | 1004.9 |
| 20260505071311 | 54 | 137 | 1.0 | 1.0 | 0.00 | 0.00 | 0.00 | 71 | 1004.8 |